Terrell, TX

3:16 PM CDT on June 27, 2017 (GMT -0500)
Terrell Municipal

Weather History for KTRL - March, 2014

Change the Weather History Date:

Sunday, March 23, 2014

  Actual Average (KGVT) Record (KGVT)
Temperature  
Mean Temperature 50 °F -  
Max Temperature 59 °F 65 °F 84 °F (2017)
Min Temperature 43 °F 50 °F 32 °F (2006)
Degree Days  
Heating Degree Days 14    
Moisture  
Dew Point 39 °F    
Average Humidity 62    
Maximum Humidity 90    
Minimum Humidity 42    
Precipitation  
Precipitation 0.00 in - - ()
Sea Level Pressure  
Sea Level Pressure 30.24 in    
Wind  
Wind Speed 13 mph (NNE)    
Max Wind Speed 21 mph    
Max Gust Speed 29 mph    
Visibility 10 miles    
Events Rain    
Averages and records for this station are not official NWS values.
T = Trace of Precipitation, MM = Missing Value Source: NWS Daily Summary

Daily Weather History Graph

Daily Weather History Graph

Search for Another Location

Airport or City:

Trip Planner

Search our weather history database for the weather conditions in past years. The results will help you decide how hot, cold, wet, or windy it might be!

Date:

Astronomy

Mar. 23, 2014 Rise Set
Actual Time 7:24 AM CDT 7:38 PM CDT
Civil Twilight 7:00 AM CDT 8:03 PM CDT
Nautical Twilight 6:31 AM CDT 8:32 PM CDT
Astronomical Twilight 6:02 AM CDT 9:01 PM CDT
Moon 1:41 AM CDT (3/23) 12:22 PM CDT (3/23)
Length of Visible Light 13h 03m
Length of Day
12h 14m
Waning Gibbous, 54% of the Moon is Illuminated
Mar 23
Waning Gibbous
Mar 23
Last Quarter
Mar 30
New
Apr 7
First Quarter
Apr 15
Full

Hourly Weather History & Observations

Time (CDT) Temp. Windchill Dew Point Humidity Pressure Visibility Wind Dir Wind Speed Gust Speed Precip Events Conditions
12:53 AM 55.0 °F - 51.1 °F 86% 30.09 in 10.0 mi North 9.2 mph - 0.00 in Rain Light Rain
1:53 AM 54.0 °F - 45.0 °F 72% 30.10 in 10.0 mi North 13.8 mph 21.9 mph 0.00 in   Overcast
2:53 AM 53.1 °F - 44.1 °F 71% 30.13 in 10.0 mi North 11.5 mph - N/A   Overcast
3:53 AM 52.0 °F - 46.9 °F 83% 30.14 in 10.0 mi North 16.1 mph - 0.00 in   Overcast
4:53 AM 50.0 °F - 46.0 °F 86% 30.17 in 10.0 mi North 20.7 mph 28.8 mph N/A   Overcast
5:07 AM 50.0 °F - 46.9 °F 89% 30.18 in 9.0 mi NNE 16.1 mph 26.5 mph N/A   Overcast
5:53 AM 48.9 °F - 46.0 °F 90% 30.20 in 10.0 mi NNE 19.6 mph 28.8 mph N/A   Overcast
6:16 AM 50.0 °F - 45.0 °F 83% 30.21 in 10.0 mi NNE 18.4 mph - N/A   Overcast
6:53 AM 50.0 °F - 41.0 °F 71% 30.23 in 10.0 mi NNE 18.4 mph - N/A   Overcast
7:53 AM 48.9 °F - 39.0 °F 69% 30.27 in 10.0 mi NNE 16.1 mph 28.8 mph N/A   Overcast
8:53 AM 50.0 °F - 39.0 °F 66% 30.30 in 10.0 mi North 10.4 mph 20.7 mph N/A   Overcast
9:53 AM 48.9 °F - 34.0 °F 56% 30.32 in 10.0 mi North 12.7 mph 21.9 mph N/A   Overcast
10:53 AM 50.0 °F - 32.0 °F 50% 30.35 in 10.0 mi North 13.8 mph - N/A   Overcast
11:53 AM 52.0 °F - 32.0 °F 47% 30.32 in 10.0 mi NNE 18.4 mph 23.0 mph N/A   Overcast
12:37 PM 54.0 °F - 33.1 °F 45% 30.33 in 10.0 mi NNE 18.4 mph 27.6 mph N/A   Overcast
12:53 PM 54.0 °F - 35.1 °F 49% 30.31 in 10.0 mi NNE 12.7 mph 23.0 mph N/A   Overcast
1:53 PM 54.0 °F - 36.0 °F 51% 30.30 in 10.0 mi NNE 10.4 mph - N/A   Clear
2:53 PM 54.0 °F - 36.0 °F 51% 30.28 in 10.0 mi NNE 12.7 mph - N/A   Partly Cloudy
3:53 PM 55.9 °F - 37.0 °F 49% 30.25 in 10.0 mi NE 6.9 mph - N/A   Clear
4:53 PM 57.0 °F - 37.9 °F 49% 30.22 in 10.0 mi NE 11.5 mph - N/A   Clear
5:53 PM 57.9 °F - 35.1 °F 42% 30.21 in 10.0 mi North 8.1 mph - N/A   Clear
6:53 PM 57.9 °F - 35.1 °F 42% 30.21 in 10.0 mi NNE 9.2 mph - N/A   Clear
7:53 PM 55.0 °F - 34.0 °F 45% 30.23 in 10.0 mi North 4.6 mph - N/A   Clear
8:53 PM 53.1 °F - 33.1 °F 47% 30.24 in 10.0 mi North 5.8 mph - N/A   Clear
9:53 PM 50.0 °F - 33.1 °F 52% 30.26 in 10.0 mi North 3.5 mph - N/A   Clear
10:53 PM 44.1 °F - 35.1 °F 71% 30.27 in 10.0 mi Calm Calm - N/A   Clear
11:53 PM 43.0 °F 41.3 °F 35.1 °F 74% 30.26 in 10.0 mi NE 3.5 mph - N/A   Clear